Weather History for KLWT - February, 2013

Change the Weather History Date:

Friday, February 8, 2013

  Actual Average Record
Temperature  
Mean Temperature 27 °F 25 °F  
Max Temperature 38 °F 35 °F 64 °F (1987)
Min Temperature 16 °F 14 °F -38 °F (1936)
Degree Days  
Heating Degree Days 38 40  
Month to date heating degree days 279 323  
Since 1 July heating degree days 4704 5028  
Cooling Degree Days 0 0  
Month to date cooling degree days 0 0  
Year to date cooling degree days 0 0  
Moisture  
Dew Point 17 °F    
Average Humidity 67    
Maximum Humidity 81    
Minimum Humidity 52    
Precipitation  
Precipitation 0.00 in 0.02 in 0.20 in (1905)
Month to date precipitation 0.02 0.13  
Year to date precipitation 1.01 0.70  
Snow  
Snow 0.00 in - - ()
Snow Depth T in    
Sea Level Pressure  
Sea Level Pressure 29.99 in    
Wind  
Wind Speed 3 mph (SE)    
Max Wind Speed 9 mph    
Max Gust Speed 18 mph    
Visibility 10 miles    
Events      
T = Trace of Precipitation, MM = Missing Value Source: NWS Daily Summary

Daily Weather History Graph

Daily Weather History Graph

Search for Another Location

Airport or City:

Trip Planner

Search our weather history database for the weather conditions in past years. The results will help you decide how hot, cold, wet, or windy it might be!

Date:

Astronomy

Feb. 08, 2013 Rise Set
Actual Time 7:32 AM MST 5:31 PM MST
Civil Twilight 7:00 AM MST 6:03 PM MST
Nautical Twilight 6:24 AM MST 6:39 PM MST
Astronomical Twilight 5:49 AM MST 7:15 PM MST
Moon 6:07 AM MST (2/8) 4:07 PM MST (2/8)
Length of Visible Light 11h 02m
Length of Day
9h 59m
Waning Crescent, 3% of the Moon is Illuminated
Feb 8
Waning Crescent
Feb 10
New
Feb 17
First Quarter
Feb 25
Full
Mar 4
Last Quarter

Hourly Weather History & Observations

Time (MST) Temp. Windchill Dew Point Humidity Pressure Visibility Wind Dir Wind Speed Gust Speed Precip Events Conditions
1:54 AM 21.0 °F 16.2 °F 14.0 °F 74% 29.97 in 10.0 mi SSE 3.5 mph - N/A   Clear
2:54 AM 21.9 °F 14.5 °F 12.9 °F 68% 29.96 in 10.0 mi SE 5.8 mph - N/A   Mostly Cloudy
3:54 AM 21.0 °F 16.2 °F 12.9 °F 71% 29.96 in 10.0 mi SSE 3.5 mph - N/A   Clear
5:54 AM 18.0 °F 9.8 °F 10.9 °F 74% 29.99 in 10.0 mi SSE 5.8 mph - N/A   Clear
6:54 AM 16.0 °F 7.4 °F 10.0 °F 77% 30.00 in 10.0 mi ESE 5.8 mph - N/A   Clear
7:54 AM 18.0 °F 11.1 °F 10.9 °F 74% 30.02 in 10.0 mi SE 4.6 mph - N/A   Clear
8:54 AM 23.0 °F - 14.0 °F 68% 30.01 in 10.0 mi Calm Calm - N/A   Clear
9:54 AM 27.0 °F - 16.0 °F 63% 30.02 in 10.0 mi Calm Calm - N/A   Clear
10:54 AM 32.0 °F - 17.1 °F 54% 30.01 in 10.0 mi Calm Calm - N/A   Clear
11:54 AM 35.1 °F - 19.9 °F 54% 30.00 in 10.0 mi Calm Calm - N/A   Clear
12:54 PM 36.0 °F - 21.9 °F 57% 29.98 in 10.0 mi Calm Calm - N/A   Clear
1:54 PM 37.0 °F - 21.0 °F 52% 29.96 in 10.0 mi Calm Calm - N/A   Clear
2:54 PM 36.0 °F - 19.9 °F 52% 29.96 in 10.0 mi Calm Calm - N/A   Clear
3:54 PM 36.0 °F - 21.0 °F 55% 29.96 in 10.0 mi Calm Calm - N/A   Mostly Cloudy
4:54 PM 33.1 °F - 21.9 °F 64% 29.97 in 10.0 mi Calm Calm - N/A   Partly Cloudy
5:54 PM 30.9 °F - 21.9 °F 69% 29.99 in 10.0 mi Calm Calm - N/A   Clear
6:54 PM 27.0 °F - 21.0 °F 78% 30.02 in 10.0 mi Calm Calm - N/A   Clear
7:54 PM 25.0 °F 16.3 °F 19.0 °F 78% 30.02 in 10.0 mi South 8.1 mph - N/A   Clear
8:54 PM 26.1 °F 20.5 °F 19.9 °F 78% 30.00 in 10.0 mi SE 4.6 mph - N/A   Overcast
9:54 PM 24.1 °F 17.0 °F 19.0 °F 81% 29.99 in 10.0 mi ESE 5.8 mph - N/A   Overcast
10:54 PM 23.0 °F 17.0 °F 17.1 °F 78% 29.97 in 10.0 mi SE 4.6 mph - N/A   Mostly Cloudy
11:54 PM 19.9 °F 11.1 °F 15.1 °F 81% 29.97 in 10.0 mi SE 6.9 mph - N/A   Clear